AA2YS Weather Reports


Display with metric or nautical units.
time (UTC)temp
F
wind
direction
speed
MPH
gust
MPH
rain 1hr
in
rain 24hr
in
rain mn
in
humidity
%
barometer
mb
20260505031519 56 0.0 0.0 0.00 0.00 0.00 70 1002.3
20260505030519 56 0.0 0.0 0.00 0.00 0.00 66 1002.1
20260505025519 56 0.0 0.0 0.00 0.00 0.00 64 1002.1
20260505024519 57 0.0 0.0 0.00 0.00 0.00 64 1002.1
20260505023539 57 0.0 0.0 0.00 0.00 0.00 62 1002.0
20260505022518 58 0.0 0.0 0.00 0.00 0.00 61 1002.2
20260505021518 59 0.0 0.0 0.00 0.00 0.00 61 1002.2
20260505020539 59 0.0 0.0 0.00 0.00 0.00 59 1002.3
20260505015522 60 0.0 0.0 0.00 0.00 0.00 58 1002.5
20260505014519 61 0.0 0.0 0.00 0.00 0.00 57 1002.5
20260505013519 62 0.0 0.0 0.00 0.00 0.00 58 1002.4
20260505012519 63 0.0 0.0 0.00 0.00 0.00 53 1002.4
20260505011519 64 0.0 0.0 0.00 0.00 0.00 52 1002.2
20260505010519 65 0.0 0.0 0.00 0.00 0.00 50 1002.1
20260505005538 66 0.0 0.0 0.00 0.00 0.00 49 1002.0
20260505004519 67 0.0 0.0 0.00 0.00 0.00 46 1002.0
20260505003539 69 0.0 0.0 0.00 0.00 0.00 44 1002.0
20260505002518 70 0.0 0.0 0.00 0.00 0.00 43 1002.0
20260505001519 70 0.0 0.0 0.00 0.00 0.00 42 1002.1
20260505000519 71 0.0 0.0 0.00 0.00 0.00 40 1002.1
20260504235519 72 0.0 0.0 0.00 0.00 0.00 40 1001.9
20260504234518 72 0.0 0.0 0.00 0.00 0.00 40 1001.9
20260504233518 73 225 1.0 6.0 0.00 0.00 0.00 38 1001.7
20260504232519 73 0.0 0.0 0.00 0.00 0.00 38 1001.7
20260504231519 73 0.0 0.0 0.00 0.00 0.00 38 1001.7
20260504230519 73 0.0 1.0 0.00 0.00 0.00 35 1001.7
20260504225520 73 0.0 0.0 0.00 0.00 0.00 34 1001.7
20260504224539 74 0.0 2.0 0.00 0.00 0.00 34 1001.6
20260504223538 74 0.0 2.0 0.00 0.00 0.00 34 1001.6
20260504222539 75 248 2.0 5.0 0.00 0.00 0.00 31 1001.7
20260504221519 75 158 1.0 7.0 0.00 0.00 0.00 34 1001.7
20260504220521 75 225 2.0 7.0 0.00 0.00 0.00 32 1001.7
20260504215519 75 248 1.0 4.0 0.00 0.00 0.00 33 1001.8
20260504214539 75 203 1.0 3.0 0.00 0.00 0.00 32 1001.9
20260504213518 75 225 2.0 7.0 0.00 0.00 0.00 32 1001.9
20260504212519 76 270 2.0 10.0 0.00 0.00 0.00 31 1002.0
20260504211518 76 158 2.0 7.0 0.00 0.00 0.00 31 1002.1
20260504210520 76 180 1.0 7.0 0.00 0.00 0.00 32 1002.1
20260504205538 76 225 1.0 5.0 0.00 0.00 0.00 33 1002.2
20260504204518 76 203 2.0 6.0 0.00 0.00 0.00 31 1002.4
20260504203518 77 225 2.0 7.0 0.00 0.00 0.00 33 1002.4
20260504202519 76 225 2.0 7.0 0.00 0.00 0.00 35 1002.5
20260504201518 76 158 5.0 13.0 0.00 0.00 0.00 32 1002.7
20260504200518 76 180 4.0 8.0 0.00 0.00 0.00 33 1002.8
20260504195520 77 225 1.0 4.0 0.00 0.00 0.00 35 1002.8
20260504194518 76 158 3.0 9.0 0.00 0.00 0.00 36 1002.9
20260504193519 77 225 3.0 9.0 0.00 0.00 0.00 33 1003.2
20260504192520 77 225 3.0 7.0 0.00 0.00 0.00 33 1003.3
20260504191518 76 270 3.0 10.0 0.00 0.00 0.00 32 1003.5
20260504190519 76 180 3.0 11.0 0.00 0.00 0.00 40 1003.6
20260504185539 77 225 4.0 11.0 0.00 0.00 0.00 34 1003.6
20260504184538 76 180 2.0 8.0 0.00 0.00 0.00 38 1003.7
20260504183540 75 180 2.0 6.0 0.00 0.00 0.00 41 1004.0
20260504182518 76 225 3.0 10.0 0.00 0.00 0.00 42 1004.1
20260504181519 76 180 3.0 16.0 0.00 0.00 0.00 42 1004.3
20260504180519 76 225 2.0 7.0 0.00 0.00 0.00 41 1004.3
20260504175520 75 225 4.0 11.0 0.00 0.00 0.00 39 1004.3
20260504174519 75 225 4.0 8.0 0.00 0.00 0.00 43 1004.4
20260504173538 75 270 2.0 6.0 0.00 0.00 0.00 42 1004.6
20260504172538 74 225 3.0 8.0 0.00 0.00 0.00 43 1004.6
20260504171519 74 180 3.0 14.0 0.00 0.00 0.00 47 1004.5
20260504170519 73 203 2.0 8.0 0.00 0.00 0.00 46 1004.7
20260504150518 67 248 3.0 12.0 0.00 0.00 0.00 49 1005.8
20260504140518 61 180 4.0 9.0 0.00 0.00 0.00 52 1005.7
20260504130518 58 158 1.0 8.0 0.00 0.00 0.00 55 1006.3
20260504110538 53 180 1.0 6.0 0.00 0.00 0.00 58 1006.8
20260504100520 52 0.0 4.0 0.00 0.00 0.00 57 1006.5
20260504081520 49 180 1.0 5.0 0.00 0.00 0.00 64 1007.2
20260504080520 49 0.0 1.0 0.00 0.00 0.00 66 1007.3
20260504050540 51 0.0 0.0 0.00 0.00 0.00 62 1008.2
20260504045520 52 0.0 0.0 0.00 0.00 0.00 61 1008.3
20260504044520 52 0.0 0.0 0.00 0.00 0.00 60 1008.3
20260504043519 53 0.0 3.0 0.00 0.00 0.00 59 1008.3
20260504042519 53 0.0 0.0 0.00 0.00 0.00 58 1008.2
20260504041539 53 0.0 0.0 0.00 0.00 0.00 58 1008.3
20260504040540 53 0.0 0.0 0.00 0.00 0.00 58 1008.3
20260504035539 53 0.0 1.0 0.00 0.00 0.00 59 1008.2
20260504034518 53 0.0 1.0 0.00 0.00 0.00 59 1008.2
20260504033519 53 0.0 3.0 0.00 0.00 0.00 62 1008.2
20260504032519 54 0.0 3.0 0.00 0.00 0.00 61 1008.2